Location: Cactus School
(34.5700°N, 118.0931°W)
Time: 07:23:08
(UTC-08:00)

Tiros 1 - Pass Details

Date: 27 November 2019
Orbit: 630 x 664 km, 48.4° (Epoch: 10 December)

Event Time Altitude Azimuth Distance (km) Brightness Sun altitude
Rises 18:56:38 0° 283° (WNW) 2,922 11.6 -27.2°
Reaches altitude 10° 19:00:53 10° 246° (WSW) 2,016 10.6 -28.1°
Maximum altitude 19:01:57 11° 233° (SW) 1,968 10.3 -28.3°
Drops below altitude 10° 19:03:02 10° 219° (SW) 2,017 10.2 -28.5°
Sets 19:07:18 0° 182° (S) 2,930 10.6 -29.4°
